Facebook

Login

Support Sailonline

If you haven't already - join the SAILONLINE YACHT CLUB!

Please also consider making a donation - all amounts are greatly appreciated!

Sailonline's Boathouse Polar Diagrams and Boat Info

SOL_Polars

Back to Snip - Create New Attachment

Id Action Attachment Upload Date Uploader
5099 Delete X-99_BOTH_THUMB_2.png 2017-09-19 20:00:21 RainbowChaser
5096 Delete X-99_BOTH.png 2017-09-19 19:57:27 RainbowChaser
5095 Delete X-99_Singlehanded_THUMB.png 2017-09-19 19:47:26 RainbowChaser
5094 Delete X-99_Singlehanded.png 2017-09-19 19:46:32 RainbowChaser
5092 Delete X-99_THUMB.png 2017-09-19 19:45:00 RainbowChaser
5091 Delete X-99.png 2017-09-19 19:44:12 RainbowChaser
3717 Delete Falkun_INFO.pdf 2016-05-26 09:15:17 RainbowChaser
3716 Delete FalkunPOLAR.png 2016-05-26 09:14:30 RainbowChaser
3466 Delete DN_iceboat.png 2016-01-31 21:13:13 RainbowChaser
2851 Delete VO60.png 2015-06-12 19:45:16 RainbowChaser
2442 Delete OD65v3POLAR.png 2014-12-30 22:38:22 kroppyer-admin
2397 Delete First40.png 2014-12-19 11:44:02 RainbowChaser
2308 Delete OD65v2_POLAR.png 2014-11-14 13:25:54 kroppyer-admin
2163 Delete OD65_POLAR.png 2014-10-08 16:34:32 kroppyer-admin
1929 Delete Orange_Cat_INFO.pdf 2014-07-26 11:13:29 RainbowChaser
1654 Delete VO70v4_INFO.pdf 2014-03-18 09:42:21 RainbowChaser
1643 Delete X332_INFO.pdf 2014-03-08 14:00:52 RainbowChaser
1629 Delete TP-52_INFO.pdf 2014-02-24 14:56:05 RainbowChaser
1625 Delete Open_60_2010_INFO.pdf 2014-02-22 18:43:23 RainbowChaser
1624 Delete Mini_650_INFO.pdf 2014-02-22 18:37:46 RainbowChaser
1623 Delete J_80_INFO.pdf 2014-02-22 18:31:28 RainbowChaser
1622 Delete J_30_INFO.pdf 2014-02-22 18:25:06 RainbowChaser
1621 Delete IMOCA_60_INFO.pdf 2014-02-22 18:13:30 RainbowChaser
1620 Delete GB_90_INFO.pdf 2014-02-22 17:44:06 RainbowChaser
1619 Delete First_477_INFO.pdf 2014-02-22 17:34:41 RainbowChaser
1618 Delete First_407_INFO.pdf 2014-02-22 17:08:16 RainbowChaser
1615 Delete First_447_INFO.pdf 2014-02-20 13:34:12 RainbowChaser
1614 Delete Seacart_30_INFO.pdf 2014-02-20 13:21:26 RainbowChaser
1613 Delete FG_43_INFO.pdf 2014-02-20 13:20:16 RainbowChaser
1612 Delete Farr_38_INFO.pdf 2014-02-20 13:19:40 RainbowChaser
1611 Delete Farr_30_INFO.pdf 2014-02-20 13:18:46 RainbowChaser
1610 Delete F_18_INFO.pdf 2014-02-20 13:11:35 RainbowChaser
1609 Delete Elan_410_INFO.pdf 2014-02-20 13:10:24 RainbowChaser
1608 Delete Dufour_40_INFO.pdf 2014-02-20 12:57:58 RainbowChaser
1607 Delete Dufour_34_INFO.pdf 2014-02-20 12:57:42 RainbowChaser
1606 Delete Class_40_INFO.pdf 2014-02-20 12:57:26 RainbowChaser
1605 Delete Beneteau_Figaro_INFO.pdf 2014-02-20 12:57:12 RainbowChaser
1604 Delete Barque_90m_INFO.pdf 2014-02-20 12:56:57 RainbowChaser
1603 Delete Albin_79_INFO.pdf 2014-02-20 12:56:42 RainbowChaser
1602 Delete 90ft_Monohull_INFO.pdf 2014-02-20 12:56:26 RainbowChaser
1601 Delete 60ft_Trimaran_INFO.pdf 2014-02-20 12:56:11 RainbowChaser
1600 Delete 11M_OD_INFO.pdf 2014-02-20 12:55:42 RainbowChaser
1598 Delete Young11modPOLAR.png 2014-02-19 12:13:48 RainbowChaser
1597 Delete Young88POLAR.png 2014-02-19 12:12:53 RainbowChaser
1595 Delete X-332POLAR.png 2014-02-19 12:12:26 RainbowChaser
1594 Delete X-35ODPOLAR.png 2014-02-19 12:12:15 RainbowChaser
1593 Delete VO70v4POLAR.png 2014-02-19 12:12:05 RainbowChaser
1592 Delete VO70POLAR.png 2014-02-19 12:11:54 RainbowChaser
1591 Delete Twister28POLAR.png 2014-02-19 12:11:43 RainbowChaser
1590 Delete TP52POLAR.png 2014-02-19 12:11:34 RainbowChaser
1589 Delete TenderBoatPOLAR.png 2014-02-19 12:11:15 RainbowChaser
1588 Delete Swan36POLAR.png 2014-02-19 12:11:04 RainbowChaser
1587 Delete Super_Maxi_100POLAR.png 2014-02-19 12:10:51 RainbowChaser
1586 Delete SteinlagerIIPOLAR.png 2014-02-19 12:10:39 RainbowChaser
1585 Delete SOTO40POLAR.png 2014-02-19 12:10:24 RainbowChaser
1584 Delete SOTO30POLAR.png 2014-02-19 12:10:15 RainbowChaser
1583 Delete SOL_balloonPOLAR.png 2014-02-19 12:09:58 RainbowChaser
1582 Delete Seacart30POLAR.png 2014-02-19 12:09:44 RainbowChaser
1581 Delete ScampiPOLAR.png 2014-02-19 12:09:33 RainbowChaser
1580 Delete SantaCruz52POLAR.png 2014-02-19 12:09:23 RainbowChaser
1579 Delete Riptide50POLAR.png 2014-02-19 12:09:11 RainbowChaser
1578 Delete Platu_25POLAR.png 2014-02-19 12:09:02 RainbowChaser
1577 Delete Ostar35POLAR.png 2014-02-19 12:08:53 RainbowChaser
1576 Delete OrangeCatPOLAR.png 2014-02-19 12:08:43 RainbowChaser
1575 Delete Open60_2010POLAR.png 2014-02-19 12:08:31 RainbowChaser
1574 Delete Mini650POLAR.png 2014-02-19 12:08:20 RainbowChaser
1573 Delete LongshipDrakePOLAR.png 2014-02-19 12:08:10 RainbowChaser
1572 Delete LizzaFortePOLAR.png 2014-02-19 12:07:47 RainbowChaser
1571 Delete Linjett40POLAR.png 2014-02-19 12:07:23 RainbowChaser
1570 Delete Linjett33POLAR.png 2014-02-19 12:07:09 RainbowChaser
1569 Delete J-80POLAR.png 2014-02-19 12:06:48 RainbowChaser
1568 Delete j30POLAR.png 2014-02-19 12:06:37 RainbowChaser
1567 Delete IMOCA60POLAR.png 2014-02-19 12:06:17 RainbowChaser
1566 Delete GB90POLAR.png 2014-02-19 12:06:02 RainbowChaser
1565 Delete FullRiggerPOLAR.png 2014-02-19 12:05:51 RainbowChaser
1564 Delete Frers33POLAR.png 2014-02-19 12:05:33 RainbowChaser
1563 Delete First477SDPOLAR.png 2014-02-19 12:05:22 RainbowChaser
1562 Delete First477POLAR.png 2014-02-19 12:05:12 RainbowChaser
1561 Delete First40V2POLAR.png 2014-02-19 12:03:52 RainbowChaser
1560 Delete First40.7POLAR.png 2014-02-19 12:03:41 RainbowChaser
1559 Delete First_447_POLAR.png 2014-02-19 12:03:31 RainbowChaser
1558 Delete FG43POLAR.png 2014-02-19 12:03:21 RainbowChaser
1557 Delete Farr38POLAR.png 2014-02-19 12:03:02 RainbowChaser
1556 Delete Farr30POLAR.png 2014-02-19 12:02:54 RainbowChaser
1555 Delete FalcunpPOLAR.jpg 2014-02-19 12:02:45 RainbowChaser
1554 Delete F18POLAR.png 2014-02-19 12:02:37 RainbowChaser
1553 Delete Elan410POLAR.png 2014-02-19 12:02:24 RainbowChaser
1552 Delete Dufour40POLAR.png 2014-02-19 12:02:14 RainbowChaser
1551 Delete Dufour34POLAR.png 2014-02-19 12:02:07 RainbowChaser
1550 Delete Delphia47POLAR.png 2014-02-19 12:01:55 RainbowChaser
1549 Delete Clipper240POLAR.png 2014-02-19 12:01:41 RainbowChaser
1548 Delete ClassBTallShipPOLAR.png 2014-02-19 12:01:26 RainbowChaser
1547 Delete Class40POLAR.png 2014-02-19 12:01:01 RainbowChaser
1546 Delete Class_A_LargePOLAR.png 2014-02-19 12:00:47 RainbowChaser
1545 Delete 60ft_trimaranPOLAR.png 2014-02-19 12:00:31 RainbowChaser
1544 Delete BeneteauFigaroPOLAR.png 2014-02-19 11:55:56 RainbowChaser
1543 Delete Barque90POLAR.png 2014-02-19 11:55:35 RainbowChaser
1542 Delete Albin79POLAR.png 2014-02-19 11:55:21 RainbowChaser
1541 Delete 90ftMonohullPOLAR.png 2014-02-19 11:55:08 RainbowChaser
1539 Delete 11mODPOLAR.png 2014-02-19 11:54:50 RainbowChaser
100 Attachments.

Races

Next Race: 00d 00h 00m


Current Races:

Java Sea Race 2022
For our penultimate Seven Seas of Asia race, we invite you to venture yet further south – to the Java Sea for a hydration-challenging circa 2200nm race Jakarta to Semarang via Selayar and Belitung, in cracking kinetic Ker 40s. Water-makers will again be mandatory!
Race #1545
INFOby brainaid.de
Ker 40 PARTICULARS
WX Updates:
0430 / 1030 / 1630 / 2230
Ranking: SYC - SSA
Race starts: Aug 20th 06:00 Registration Open!

▶ Flash
GO TO RACE

Victoria to Maui 2022
The Victoria to Maui International Yacht Race, first contested in 1968, is the pinnacle of Pacific Northwest ocean racing, running every two years. This year, Sailonline invites the SOL fleet to race the 2300nm course in Delphia 47s, from Victoria, British Columbia to Hawaii, finishing off Lahaina Maui.
PRIZE: SMPF
Race #1596
INFOby brainaid.de
Delphia 47 PARTICULARS
WX Updates:
0430 / 1030 / 1630 / 2230
Ranking:
OCQ3-OCCH-SUPSOL-SYC
Race starts: Aug 09th 19:00 Registration Open!

▶ Flash
GO TO RACE

Sailonline’s 15th Birthday Balloon Race
Sailonline offers a huge variety of boats to sail in. One of the more unusual ones has got to be SOL's Balloon, which was polarized by past SOLmaster 76Trombones. Notably, the SOL Balloon will actually ‘sail’ in other directions other than straight downwind, although it will not 'sail' over land or beyond a 'beam reach'. Like in 2013 and 2018, we will be taking the Balloon across the Atlantic from St. John's and 'land' it in the sea off the Cliffs of Moher.
Race #1605
INFO by brainaid.de
SOL Balloon PARTICULARS
WX Updates:
0430 / 1030 / 1630 / 2230
Ranking:
None
Race starts: Aug 01st 19:00 Registration Closed

▶ Flash
GO TO RACE

Go to race archive

SYC Ranking

  1. Sailonline Yacht Club Member WRmirekd
  2. Sailonline Yacht Club Member Pit8008
  3. Sailonline Yacht Club Member rafa
  4. Sailonline Yacht Club Member FreyjaUSA
  5. Sailonline Yacht Club Member Vida_Maldita
  6. Sailonline Yacht Club Member GREATSKUA
  7. Sailonline Yacht Club Member Satori
  8. Sailonline Yacht Club Member Sax747
  9. Sailonline Yacht Club Member Kipper1258
  10. Sailonline Yacht Club Member HappyHour

View full list

Series

Mobile Client

SYC members have the benefit of access to our mobile/lightweight web client!

The mobile client